[[{"header":{"parameterUnit":"m.s-1","parameterCategory":1,"la1":30.2991,"la2":30.254,"lo1":-89.0895,"lo2":-89.0444,"dy":0.0017,"dx":0.0017,"nx":28,"ny":28,"refTime":"2025-06-04T03:00:00:Z","depth":0,"parameterNumber":2,"parameterNumberName":"U-component_of_WINDS"},"data":[0,0,0,0,0,0,0,0,0,0,0,0,0,0,0,0,0,0,0,0,0,0,0,0,0,0,0,0,0,0,0,0,0,0,0,0,0,0,0,0,0,0,0,0,0,0,0,0,0,0,0,0,0,0,0,0,0,0,0.2907,0.2908,0,0.3004,0.3005,0.3006,0.3058,0.3058,0.3059,0.3059,0.316,0.3162,0.3165,0,0,0,0,0,0,0,0,0,0,0,0,0,0.2768,0.277,0.2907,0.2908,0.2909,0.3003,0.3005,0.3006,0.3058,0.3058,0.3059,0.3059,0.3159,0.3162,0.3165,0,0,0,0,0,0,0,0,0,0,0,0,0,0.2843,0.2771,0.2907,0.2947,0.2951,0.3003,0.3005,0.3006,0.3058,0.3058,0.3059,0.3059,0.3158,0.3162,0.3165,0.3186,0,0,0.3177,0.3179,0,0,0,0,0,0,0,0,0.2839,0.2848,0.2939,0.2944,0.2949,0.3019,0.2993,0.3067,0.3058,0.3018,0.3059,0.3059,0.3113,0.312,0.3138,0.3191,0.3195,0.3178,0.318,0.3182,0.3183,0,0,0,0,0,0,0,0.2833,0.2844,0.2945,0.2941,0.2947,0.296,0.2971,0.3007,0.3063,0.3021,0.3025,0.3036,0.3116,0.3134,0.3141,0.3196,0.3178,0.3181,0.3183,0.3185,0.3269,0.3269,0,0,0,0,0,0,0.2822,0.2839,0.2942,0.2948,0.2893,0.2962,0.2974,0.2996,0.3063,0.3073,0.3036,0.3038,0.3128,0.3136,0.3145,0.3172,0.3182,0.3185,0.3187,0.3269,0.3269,0.3269,0,0,0,0,0,0,0.2818,0.283,0.2938,0.2895,0.291,0.2964,0.2989,0.2998,0.3017,0.3074,0.3084,0.3044,0.3128,0.3139,0.3175,0.3177,0.3187,0.319,0.3269,0.3269,0.3269,0.3228,0,0,0,0,0,0,0.2814,0.2829,0.2837,0.2895,0.2912,0.2966,0.2989,0.3,0.3023,0.3027,0.3085,0.3095,0.3129,0.3169,0.3179,0.3182,0.3194,0.3269,0.3269,0.3269,0.3229,0.3226,0.3224,0,0,0,0,0,0.2809,0.2822,0.2837,0.2849,0.2923,0.2966,0.2976,0.3015,0.3023,0.3032,0.3068,0.3093,0.3175,0.3172,0.3184,0.3188,0.327,0.3269,0.3269,0.323,0.3227,0.3224,0,0,0,0,0,0,0.2764,0.283,0.2848,0.288,0.2917,0.2975,0.2987,0.301,0.3046,0.3048,0.3096,0.3108,0.3139,0.3168,0.3163,0.3211,0.3225,0.3227,0.3191,0.3188,0.3185,0.3178,0.3197,0,0,0,0,0,0.2757,0.2787,0.2843,0.2866,0.2884,0.2932,0.2952,0.2979,0.302,0.3036,0.3075,0.3113,0.3148,0.317,0.3205,0.3233,0.3246,0.3242,0.3239,0.3237,0.3238,0.3255,0.3253,0.3268,0.3268,0.3268,0,0,0.2745,0.2785,0.2801,0.2858,0.289,0.2919,0.2945,0.2975,0.2997,0.3041,0.3076,0.3106,0.3152,0.3184,0.32,0.3209,0.3237,0.3237,0.3234,0.3237,0.3254,0.3253,0.3251,0.3268,0.3268,0.3268,0,0,0.2737,0.277,0.2792,0.2823,0.2871,0.2903,0.2908,0.2962,0.2983,0.302,0.3052,0.308,0.3138,0.317,0.3193,0.3196,0.3219,0.3206,0.3191,0.3207,0.3205,0.3205,0.3205,0.3204,0.3207,0.3207,0.3207,0,0.2715,0.276,0.2801,0.2829,0.2853,0.2892,0.2915,0.2944,0.3,0.3016,0.3024,0.3098,0.3132,0.3171,0.3172,0.319,0.3197,0.3199,0.3202,0.3202,0.3202,0.3202,0.3202,0.3205,0.3205,0.3205,0.3205,0,0.2731,0.2762,0.2774,0.2827,0.2852,0.2877,0.2922,0.2943,0.2967,0.2998,0.3033,0.3076,0.3119,0.3131,0.3155,0.3173,0.3177,0.3193,0.3208,0.3197,0.3199,0.3199,0.3202,0.3203,0.3203,0.3204,0,0,0.2698,0.2772,0.2775,0.2799,0.2854,0.2879,0.2905,0.2947,0.2964,0.3002,0.3025,0.3073,0.3088,0.3115,0.3143,0.3156,0.3154,0.3171,0.3173,0.3166,0.3176,0.3163,0.3162,0.317,0.3171,0.3171,0.3172,0,0.2697,0.2746,0.2783,0.2818,0.2847,0.2884,0.2908,0.2944,0.2973,0.3001,0.3034,0.3067,0.3085,0.3101,0.3116,0.3151,0.3157,0.3152,0.3192,0.3193,0.3179,0.3163,0.315,0.3149,0.3173,0.3173,0.3173,0,0.2703,0.2738,0.2776,0.2827,0.284,0.286,0.2901,0.2928,0.2969,0.299,0.3018,0.3047,0.3077,0.3089,0.313,0.3126,0.3144,0.3164,0.3165,0.317,0.3182,0.3167,0.315,0.3149,0.3174,0.3174,0.3174,0,0.2674,0.2731,0.276,0.278,0.284,0.2853,0.2879,0.2921,0.2943,0.2979,0.2994,0.3033,0.3054,0.3083,0.3122,0.3127,0.3159,0.3174,0.3176,0.3175,0.3181,0.318,0.3165,0.3194,0.3194,0.3194,0.3194,0,0.2669,0.2691,0.2748,0.2766,0.2791,0.2833,0.2857,0.2886,0.2922,0.2947,0.2982,0.3004,0.3054,0.3082,0.3112,0.3141,0.3151,0.3168,0.3176,0.3165,0.3162,0.3177,0.3178,0.3194,0.3194,0.3194,0.3194,0,0.2641,0.268,0.2715,0.2769,0.2783,0.2799,0.2845,0.2864,0.2895,0.2925,0.2935,0.2983,0.3018,0.3059,0.3108,0.3128,0.3154,0.3166,0.314,0.3144,0.3144,0.3143,0.3138,0.3139,0.3167,0.3166,0.3166,0,0.2635,0.2652,0.2707,0.2726,0.275,0.278,0.2803,0.2845,0.2867,0.2915,0.2928,0.2965,0.2997,0.3051,0.3091,0.3128,0.314,0.3136,0.3146,0.3134,0.3139,0.3138,0.3139,0.3133,0.3133,0.3132,0.3132,0,0.262,0.2638,0.267,0.2707,0.2733,0.2765,0.2798,0.2811,0.286,0.2883,0.2919,0.2943,0.2992,0.3029,0.307,0.3097,0.3122,0.3128,0.3131,0.3119,0.3103,0.3111,0.3132,0.3128,0.3129,0.3129,0.3129,0.3129,0.2603,0.2619,0.266,0.2694,0.2723,0.2753,0.2773,0.2806,0.2836,0.2878,0.2901,0.2936,0.2976,0.3035,0.3061,0.3088,0.3097,0.3101,0.3102,0.3102,0.3098,0.3098,0.3096,0.3097,0.3097,0.3097,0.3097,0,0.2589,0.2617,0.2647,0.2692,0.2718,0.2739,0.2776,0.2797,0.2826,0.2862,0.2892,0.2932,0.2967,0.3009,0.3047,0.3061,0.3074,0.307,0.3069,0.3074,0.3089,0.3082,0.3059,0.3059,0.3059,0.3059,0.3059,0.3059,0.2585,0.2614,0.2637,0.268,0.2708,0.2742,0.2761,0.2789,0.2817,0.286,0.2889,0.2916,0.2954,0.2995,0.3028,0.3039,0.3051,0.3043,0.3058,0.307,0.3074,0.3077,0.3071,0.3046,0.3046,0.3042,0.3042,0.3042]},{"header":{"parameterUnit":"m.s-1","parameterCategory":1,"la1":30.2991,"la2":30.254,"lo1":-89.0895,"lo2":-89.0444,"dy":0.0017,"dx":0.0017,"nx":28,"ny":28,"refTime":"2025-06-04T03:00:00:Z","depth":0,"parameterNumber":3,"parameterNumberName":"V-component_of_WINDS"},"data":[0,0,0,0,0,0,0,0,0,0,0,0,0,0,0,0,0,0,0,0,0,0,0,0,0,0,0,0,0,0,0,0,0,0,0,0,0,0,0,0,0,0,0,0,0,0,0,0,0,0,0,0,0,0,0,0,0,0,4.4801,4.48,0,4.4746,4.4746,4.4745,4.4721,4.4721,4.4721,4.4721,4.4659,4.4657,4.4655,0,0,0,0,0,0,0,0,0,0,0,0,0,4.4878,4.4877,4.4801,4.48,4.4799,4.4746,4.4746,4.4745,4.4721,4.4721,4.4721,4.4721,4.4659,4.4657,4.4655,0,0,0,0,0,0,0,0,0,0,0,0,0,4.4836,4.4877,4.4801,4.4781,4.4779,4.4747,4.4746,4.4745,4.4721,4.4721,4.4721,4.4721,4.466,4.4657,4.4655,4.4636,0,0,4.4647,4.4646,0,0,0,0,0,0,0,0,4.4839,4.4833,4.4785,4.4782,4.478,4.4741,4.475,4.4708,4.4721,4.4743,4.4721,4.4721,4.4685,4.4681,4.467,4.4633,4.463,4.4646,4.4645,4.4644,4.4643,0,0,0,0,0,0,0,4.4842,4.4835,4.4779,4.4784,4.4781,4.4773,4.4767,4.4742,4.4714,4.4741,4.4739,4.4733,4.4684,4.4672,4.4668,4.4629,4.4647,4.4644,4.4643,4.4642,4.4575,4.4575,0,0,0,0,0,0,4.4849,4.4838,4.4781,4.4777,4.481,4.4772,4.4765,4.4753,4.4714,4.4708,4.4733,4.4732,4.4677,4.4671,4.4666,4.4642,4.4644,4.4641,4.464,4.4575,4.4575,4.4575,0,0,0,0,0,0,4.485,4.4844,4.4783,4.4807,4.4799,4.477,4.4757,4.4752,4.474,4.4708,4.4702,4.4727,4.4677,4.467,4.4644,4.4639,4.464,4.4638,4.4575,4.4575,4.4575,4.4593,0,0,0,0,0,0,4.4853,4.4844,4.4838,4.4807,4.4798,4.4764,4.4756,4.4751,4.4737,4.4735,4.4701,4.4695,4.4676,4.4648,4.4642,4.4636,4.4636,4.4576,4.4575,4.4575,4.4593,4.4594,4.4594,0,0,0,0,0,4.4856,4.4844,4.4838,4.4831,4.479,4.4763,4.4758,4.4738,4.4736,4.4729,4.4709,4.4696,4.4641,4.4646,4.4638,4.4631,4.4576,4.4575,4.4575,4.4593,4.4594,4.4594,0,0,0,0,0,0,4.4872,4.4839,4.4832,4.4811,4.4791,4.476,4.475,4.4739,4.4717,4.4716,4.4691,4.4683,4.466,4.4643,4.4649,4.4612,4.4607,4.4605,4.4624,4.4624,4.4625,4.4629,4.4633,0,0,0,0,0,4.4873,4.4857,4.4828,4.4812,4.4803,4.4778,4.4766,4.4753,4.473,4.472,4.4698,4.4674,4.4651,4.4637,4.4614,4.4591,4.4583,4.4582,4.4583,4.4584,4.4582,4.4569,4.4568,4.4573,4.4573,4.4573,0,0,4.4875,4.4856,4.4846,4.4815,4.4798,4.478,4.4771,4.4751,4.4737,4.4716,4.4692,4.4675,4.4647,4.4623,4.4611,4.4607,4.4579,4.4583,4.4584,4.4582,4.4568,4.4568,4.4568,4.4573,4.4573,4.4573,0,0,4.487,4.4854,4.4839,4.4823,4.4798,4.4782,4.4778,4.4749,4.4738,4.4714,4.4698,4.468,4.4641,4.4622,4.4607,4.4597,4.4585,4.459,4.4593,4.4581,4.4581,4.458,4.4577,4.4576,4.4589,4.4589,4.4589,0,4.4875,4.4849,4.4832,4.4814,4.4801,4.4784,4.4768,4.4752,4.472,4.4711,4.4708,4.4661,4.4641,4.4612,4.461,4.4599,4.4593,4.4594,4.4583,4.4582,4.4581,4.4577,4.4576,4.459,4.459,4.459,4.459,0,4.4857,4.4839,4.483,4.4803,4.4788,4.4771,4.475,4.4737,4.4726,4.471,4.4685,4.4661,4.4633,4.4626,4.4613,4.4596,4.4595,4.4588,4.4583,4.4582,4.4578,4.4576,4.4591,4.4591,4.459,4.459,0,0,4.4858,4.4824,4.4821,4.4809,4.4781,4.4766,4.4748,4.4724,4.4714,4.4692,4.4676,4.4645,4.464,4.4623,4.4608,4.4597,4.4591,4.4592,4.4591,4.4592,4.4571,4.4576,4.4575,4.4584,4.4583,4.4583,4.4573,0,4.4849,4.482,4.4804,4.478,4.4764,4.4748,4.4733,4.4714,4.4699,4.4681,4.4663,4.4642,4.4636,4.4626,4.4615,4.4595,4.4586,4.4595,4.4567,4.4566,4.4575,4.4572,4.4577,4.4569,4.4571,4.4571,4.4571,0,4.4834,4.4816,4.4792,4.4768,4.476,4.4747,4.4724,4.4708,4.4685,4.4675,4.4658,4.4644,4.4624,4.4621,4.4593,4.4599,4.4586,4.4575,4.4574,4.457,4.4568,4.4568,4.4566,4.4565,4.4568,4.4568,4.4569,0,4.4838,4.4808,4.479,4.4779,4.475,4.4742,4.4729,4.4707,4.4694,4.4673,4.4664,4.4641,4.4628,4.4609,4.4589,4.4589,4.4562,4.4558,4.4552,4.4553,4.4546,4.4547,4.4542,4.4539,4.4539,4.4539,4.4539,0,4.4829,4.4815,4.4791,4.478,4.4763,4.4745,4.4728,4.4714,4.4695,4.4679,4.4664,4.4649,4.4624,4.4606,4.4589,4.4568,4.4562,4.4552,4.4548,4.4554,4.4555,4.4545,4.4544,4.4539,4.4539,4.4539,4.4539,0,4.4831,4.4814,4.4794,4.4769,4.4762,4.4751,4.4729,4.4717,4.4702,4.4683,4.4677,4.4653,4.4631,4.4609,4.4579,4.4568,4.4547,4.4541,4.4555,4.4553,4.4548,4.4549,4.4536,4.4534,4.4533,4.4533,4.4533,0,4.4826,4.4815,4.479,4.478,4.4768,4.4752,4.4739,4.4721,4.4708,4.4683,4.4674,4.4651,4.4632,4.4598,4.4576,4.4553,4.4547,4.4544,4.4543,4.4549,4.4546,4.4547,4.4546,4.4544,4.4544,4.4544,4.4544,0,4.4819,4.4812,4.4796,4.4778,4.4764,4.4748,4.4731,4.4723,4.4701,4.4688,4.4667,4.4652,4.4623,4.4601,4.4576,4.456,4.4548,4.4545,4.4543,4.4548,4.4556,4.4552,4.4557,4.4545,4.4545,4.4545,4.4545,4.4545,4.4817,4.4807,4.4789,4.4772,4.4758,4.4743,4.4731,4.4716,4.4699,4.4675,4.4665,4.4644,4.4622,4.4587,4.4572,4.4554,4.4551,4.4547,4.4546,4.4546,4.4547,4.456,4.4549,4.4549,4.4549,4.4549,4.4549,0,4.481,4.4798,4.4783,4.4761,4.4747,4.4741,4.4722,4.471,4.4693,4.4675,4.4657,4.4633,4.4612,4.459,4.4567,4.4557,4.4551,4.4551,4.4552,4.4548,4.4551,4.4556,4.4557,4.4557,4.4557,4.4557,4.4557,4.4557,4.4805,4.4788,4.4779,4.4755,4.4742,4.4723,4.4713,4.4699,4.4685,4.466,4.4643,4.463,4.461,4.4586,4.4566,4.456,4.4552,4.4554,4.4546,4.4548,4.4548,4.4547,4.4552,4.4552,4.4552,4.4545,4.4545,4.4545]}]]